Theta_e
312 312 312 312 313 313 314 314 313 313 314 314 315 315 315 314 314 315 318 318 314 312 311 311 310 309 310 310 307 310 309 312 309 305 305 306 307 310 310 313 312 312 312 312 313 309 307 323 322 318 325 328 328 327
312 312 312 312 312 312 313 313 313 313 314 314 314 315 315 314 314 313 315 318 316 314 312 313 313 313 311 311 308 309 309 308 310 306 310 308 306 309 309 305 316 310 315 312 314 315 321 322 323 325 328 327 325 326
312 312 312 312 312 312 312 312 313 313 313 314 313 314 314 314 312 312 315 317 316 312 312 311 310 312 313 312 313 306 313 312 312 311 308 307 303 307 303 305 308 315 319 314 315 319 318 318 319 321 322 321 322 324
313 313 312 312 312 312 312 312 313 313 313 314 314 314 313 313 312 312 315 316 315 312 305 309 313 310 313 313 312 311 310 311 311 310 306 305 304 310 304 306 305 308 312 310 313 318 320 321 320 318 319 320 320 322
313 313 313 312 312 312 312 312 312 313 313 313 313 314 312 312 313 314 318 317 316 310 305 308 311 311 311 311 311 311 309 308 307 305 304 303 307 306 307 306 304 308 306 304 303 311 316 320 323 319 316 317 318 318
314 313 313 313 312 312 312 312 312 312 312 312 313 312 311 311 310 317 314 317 317 315 307 304 310 307 309 310 309 309 310 308 307 306 305 307 309 306 302 301 308 309 310 310 308 311 311 313 319 318 315 316 318 317
314 314 314 313 313 312 312 312 311 312 312 312 312 311 309 311 313 313 311 311 310 315 307 304 305 307 308 309 309 309 310 308 307 306 304 305 306 306 303 299 307 309 309 310 311 311 309 310 310 315 315 315 317 318
314 314 314 314 313 313 312 312 311 311 311 311 311 311 309 310 307 313 316 313 312 311 309 302 305 304 309 306 306 312 307 308 308 306 306 303 305 305 300 305 308 309 310 309 310 311 310 312 313 312 313 313 314 314
314 314 314 314 313 313 312 311 311 311 311 311 311 311 314 313 314 313 312 312 316 311 305 306 301 301 311 307 309 308 309 302 308 304 304 305 302 300 304 307 308 309 309 309 310 310 310 310 310 311 312 311 312 312
314 314 314 314 313 313 312 311 311 310 310 310 313 313 312 312 311 313 312 310 310 310 308 302 308 302 308 306 305 305 306 303 300 303 307 302 301 307 309 310 310 310 310 310 308 307 309 309 309 310 311 312 313 314
314 314 314 314 313 312 311 311 310 309 312 313 309 310 311 315 312 310 307 305 308 304 308 309 306 304 311 303 302 305 301 302 296 300 300 299 299 306 311 311 312 311 311 310 310 311 310 310 310 311 312 313 313 314
313 313 313 313 313 312 311 310 310 311 310 305 304 308 311 310 309 302 304 306 303 302 309 305 307 307 307 310 304 305 300 302 294 304 300 296 303 311 309 309 309 310 310 310 310 309 310 310 312 312 313 313 315 317
313 313 313 313 312 311 310 310 310 310 309 313 308 306 308 306 296 297 296 303 303 308 309 306 303 306 308 307 303 301 296 297 304 297 296 300 309 311 311 312 309 309 310 310 310 311 310 311 312 313 314 316 316 316
312 312 312 312 311 310 309 310 310 309 309 309 305 293 301 301 304 305 302 303 306 306 306 306 304 303 304 300 300 295 300 299 294 294 296 303 311 312 312 310 309 310 311 311 311 311 311 312 313 315 314 315 315 316
312 312 311 312 309 308 309 310 309 311 310 306 307 293 302 307 307 308 309 307 308 309 307 304 304 304 300 297 299 298 295 292 295 296 301 307 312 311 311 311 310 310 310 309 310 310 312 312 312 313 315 316 316 317
312 310 314 308 308 309 309 311 313 314 310 306 305 302 306 305 306 307 307 306 310 307 306 304 298 296 297 298 295 294 293 293 297 302 304 305 303 303 303 304 304 304 304 304 307 308 310 312 312 314 315 315 315 316
307 316 307 308 309 309 309 310 314 308 307 305 304 308 307 307 306 306 307 307 310 303 298 298 293 295 301 296 294 299 296 300 301 300 302 304 303 304 305 305 306 305 303 303 305 307 308 310 314 313 312 314 314 316
310 314 308 309 309 311 315 312 309 307 303 307 304 307 309 309 307 307 308 309 305 302 300 296 299 295 293 290 293 298 300 301 302 302 303 304 304 305 305 305 307 307 306 305 305 308 308 311 311 310 313 314 314 315
312 310 309 308 308 304 307 309 309 303 306 308 309 309 309 308 310 310 309 309 308 306 301 297 293 292 292 296 295 298 299 300 299 301 304 307 306 308 309 309 310 311 307 307 304 305 308 310 312 311 311 311 310 311
309 308 308 308 308 309 306 309 311 305 303 307 308 307 307 307 309 309 309 308 306 301 295 292 291 295 296 298 300 300 301 303 302 300 301 310 311 307 309 312 309 308 308 307 306 303 307 310 313 312 311 311 310 312
306 310 306 309 310 310 308 307 306 307 306 304 307 307 306 309 308 307 305 307 299 295 292 295 295 298 301 302 303 303 305 307 306 306 310 311 310 309 310 310 309 309 307 305 303 303 305 310 309 313 311 310 311 313
309 305 309 308 306 304 301 306 303 305 303 304 305 307 305 304 305 306 309 303 298 299 298 299 300 303 303 304 307 310 311 313 315 311 305 304 303 302 301 303 305 305 306 304 303 303 307 310 310 314 312 309 311 312
305 307 307 304 299 298 297 306 299 303 301 304 305 303 303 302 306 310 302 302 302 307 306 305 305 307 307 311 315 313 320 316 312 307 307 305 303 303 304 304 304 303 301 303 306 306 308 306 308 311 309 312 313 311
302 303 298 298 298 295 303 299 302 302 303 300 299 298 301 303 308 306 299 301 306 308 307 308 308 306 309 312 312 311 314 319 313 308 307 302 301 302 305 304 305 305 306 307 308 311 311 310 306 309 312 311 311 310
296 295 295 290 299 296 295 297 300 299 298 299 298 299 301 305 301 300 298 300 304 307 310 309 309 309 306 308 314 315 322 319 309 307 308 307 306 305 304 305 305 307 307 305 305 308 308 308 310 310 310 309 309 308
291 298 293 299 301 297 300 297 297 297 299 299 300 304 305 301 298 297 301 305 306 307 306 307 309 306 308 314 313 319 320 320 311 308 309 310 307 304 302 303 304 307 309 309 307 307 307 308 309 309 306 305 300 303
290 297 301 306 303 302 300 303 303 300 298 298 301 301 301 296 298 306 311 313 308 315 314 311 314 309 310 316 319 327 326 318 314 312 311 311 310 310 309 305 305 308 310 310 310 309 307 307 307 309 306 307 308 309
297 300 298 302 300 301 296 297 298 298 302 307 304 298 298 300 303 310 311 315 313 315 316 317 319 319 319 319 321 326 326 327 324 317 315 314 313 313 313 311 312 299 311 313 312 313 312 311 309 309 310 310 312 313
297 301 300 297 298 296 297 298 301 305 308 306 301 300 303 309 312 312 310 316 317 318 314 316 318 322 329 325 322 323 325 323 320 315 312 311 311 312 314 315 315 315 316 315 301 308 312 314 313 313 316 318 319 320
297 302 296 295 294 297 302 305 305 309 310 309 309 308 308 310 314 318 317 317 314 313 319 322 321 326 325 327 320 319 321 322 321 318 317 317 318 318 318 316 315 315 315 314 314 319 304 315 313 317 315 317 320 320
300 298 296 297 298 305 308 310 310 310 310 309 310 308 308 311 315 319 319 319 320 321 322 323 324 325 325 324 322 321 318 322 322 321 323 322 321 322 322 322 322 321 320 320 321 320 320 317 317 319 318 317 318 321
299 297 296 295 302 306 307 306 308 309 310 310 311 314 313 311 311 318 323 323 322 322 316 322 325 326 328 325 323 326 311 324 322 324 324 325 324 324 324 324 324 323 322 320 321 321 320 321 323 322 320 316 316 316
299 299 298 297 298 301 308 306 308 308 309 311 313 315 315 314 313 320 325 327 325 324 325 326 328 329 331 326 325 322 315 324 310 297 300 299 298 303 318 325 326 326 323 322 323 325 324 324 321 319 319 319 320 320
Wind_Speed
14 16 17 17 18 20 20 21 22 23 24 24 25 25 25 24 21 12 4 10 7 6 6 6 5 7 7 4 6 10 8 5 7 8 9 10 12 12 10 17 15 16 13 13 15 19 22 12 5 8 9 10 8 7
13 15 16 17 18 19 20 20 21 22 23 24 24 24 23 22 20 16 6 7 5 6 8 4 4 3 4 6 7 8 7 4 6 6 2 5 6 8 9 12 11 11 8 9 9 7 9 10 11 11 11 9 8 5
13 14 15 17 18 19 20 21 21 22 23 23 24 24 22 20 18 11 7 8 6 5 6 7 6 5 3 3 6 6 3 8 3 5 7 5 5 9 8 8 13 4 5 6 10 3 6 5 7 8 8 6 5 6
12 14 15 16 18 19 20 21 22 23 23 22 22 23 22 19 16 10 5 6 6 6 6 6 4 5 0 6 4 7 10 8 9 5 7 8 8 4 8 11 12 11 3 7 11 14 7 6 5 4 4 5 5 5
12 14 15 16 17 18 20 21 22 23 24 23 23 22 22 19 11 8 3 4 6 7 7 8 6 9 7 5 6 6 8 9 6 8 8 9 9 10 10 11 12 11 14 12 11 14 6 6 2 6 4 4 3 5
12 13 15 15 16 18 19 21 22 24 25 24 23 21 18 13 8 7 6 4 7 6 6 5 6 4 4 5 8 8 8 7 6 8 7 8 15 10 7 10 13 13 13 14 12 13 16 12 10 6 8 10 5 6
11 13 14 15 16 17 19 21 22 24 26 25 24 19 13 9 8 4 7 6 8 7 6 5 4 6 5 7 8 5 8 5 8 7 10 11 11 6 11 14 20 16 14 14 13 13 15 15 13 9 13 9 5 11
12 13 14 15 16 17 19 21 23 25 27 26 22 14 8 6 2 5 5 4 7 6 4 5 3 4 3 6 4 3 6 8 8 8 9 9 8 10 12 19 20 17 14 15 15 18 18 16 17 17 16 15 10 13
13 13 14 14 15 16 18 20 23 26 28 27 20 11 5 6 3 6 12 9 5 6 6 3 6 4 0 7 4 6 4 7 8 10 10 9 11 11 12 15 14 12 14 15 15 17 17 19 19 17 17 17 14 13
13 13 14 14 14 15 16 19 22 25 29 29 9 5 2 6 7 10 6 6 7 5 5 5 2 6 2 6 6 6 5 6 10 9 11 14 15 20 21 19 17 15 13 16 19 16 16 16 15 16 17 13 12 11
14 14 14 13 13 13 14 17 19 25 14 8 7 3 8 6 5 4 2 4 3 5 5 2 6 8 2 7 9 5 5 6 9 10 13 10 15 16 20 17 8 9 11 13 16 18 15 14 13 13 12 12 12 10
13 14 13 13 12 13 14 15 15 11 9 10 8 8 5 5 3 5 2 2 5 4 3 6 6 6 6 4 6 5 6 6 8 6 5 9 10 5 1 2 3 5 9 11 11 14 15 17 12 9 10 10 8 6
13 13 13 12 10 12 15 10 10 14 18 4 6 6 1 2 3 4 1 1 4 2 2 5 8 6 3 4 5 5 6 8 7 6 11 9 3 6 2 1 4 3 4 7 10 12 13 13 11 13 11 8 8 6
13 13 13 11 11 12 9 11 13 12 7 5 4 6 5 5 4 3 8 9 8 7 8 9 8 6 5 4 6 7 8 6 8 12 16 10 13 4 1 3 5 6 6 12 10 11 11 11 11 10 10 10 8 6
13 12 12 13 4 7 11 13 14 7 5 5 3 5 7 4 5 9 6 6 7 6 6 7 9 8 7 4 4 5 5 7 8 9 6 9 10 9 10 12 13 13 12 13 15 21 20 14 12 12 11 10 9 8
11 15 3 3 8 12 15 16 9 5 4 4 6 7 9 10 10 10 9 9 7 6 5 4 4 6 4 4 5 9 7 9 5 6 8 12 15 15 15 16 17 16 16 14 18 24 22 22 12 12 12 11 9 9
3 3 4 6 12 17 16 6 3 6 6 5 7 8 9 10 9 8 8 8 6 4 6 3 4 9 2 6 9 6 13 13 9 11 12 18 21 21 21 19 19 18 17 16 17 20 19 21 17 13 12 10 9 10
5 3 5 9 12 12 5 5 4 5 7 8 9 7 7 8 10 9 8 7 4 3 3 5 4 7 6 5 8 11 7 10 13 15 15 18 21 21 18 19 17 16 15 14 15 18 17 18 10 9 11 11 11 7
4 4 8 10 7 4 5 4 3 6 7 7 7 7 7 9 9 9 8 5 3 3 2 2 7 6 7 9 15 16 15 13 15 16 17 21 22 22 20 17 17 17 14 14 14 13 13 16 11 9 11 10 9 6
10 10 10 9 5 5 5 4 2 7 6 6 9 9 8 10 8 7 6 5 2 4 3 5 8 10 11 14 13 14 15 15 15 16 16 14 11 12 15 15 10 11 11 12 12 14 12 12 8 9 10 8 8 7
4 4 4 5 3 5 6 5 5 5 7 6 8 9 9 6 8 7 3 6 3 4 6 9 10 14 14 15 16 16 17 15 14 12 12 10 8 8 8 8 10 6 7 8 9 10 14 11 7 10 8 6 7 6
1 3 4 4 4 3 4 4 6 7 6 7 10 8 9 8 6 4 3 3 4 5 5 5 11 13 14 18 17 18 18 14 11 5 6 5 7 8 7 7 7 5 6 8 10 11 10 8 7 9 4 7 6 5
4 5 2 2 3 3 6 4 5 5 6 6 8 6 4 4 4 4 3 2 4 5 7 8 14 16 15 17 19 15 19 14 5 6 7 5 4 5 4 3 3 6 7 7 8 10 10 12 9 7 5 7 8 7
3 3 3 3 4 5 4 4 4 5 5 5 5 8 6 4 7 3 3 3 4 4 5 11 11 10 13 16 10 11 11 8 7 8 6 5 4 5 5 6 4 5 6 7 5 9 12 11 9 5 10 9 9 8
4 4 3 5 5 5 5 6 7 4 7 10 10 7 4 4 4 4 2 3 4 10 9 11 12 10 10 11 11 10 13 8 7 7 5 5 5 6 6 5 5 5 7 5 5 11 11 11 11 7 4 4 8 6
5 6 6 5 3 6 5 6 2 5 9 6 4 4 4 4 4 5 3 1 7 7 8 9 12 11 13 12 11 10 10 7 8 7 4 3 7 8 6 7 7 4 7 7 6 4 7 7 7 7 4 3 9 8
5 6 6 4 4 5 6 6 8 7 5 5 4 5 2 4 4 4 1 2 3 8 7 6 8 9 9 12 9 8 6 9 9 4 2 2 5 8 8 7 9 8 6 7 7 7 8 7 5 6 6 7 8 12
5 6 8 6 3 3 6 5 5 5 4 2 3 4 3 5 4 7 10 11 9 9 8 8 8 6 7 5 5 7 6 5 7 6 10 10 9 8 9 7 7 1 7 8 7 8 6 7 9 8 8 10 8 8
5 4 4 7 5 4 5 6 6 4 4 6 5 7 8 9 10 12 14 13 9 8 9 10 8 8 8 8 7 9 6 8 9 14 12 7 8 9 8 7 8 5 5 6 12 13 5 6 6 6 2 1 3 5
5 4 3 4 5 7 6 7 7 8 7 7 7 11 12 13 12 12 12 10 6 7 7 7 8 9 6 6 8 9 8 10 10 9 8 9 7 2 6 9 9 10 8 5 3 6 4 6 4 3 3 3 5 9
1 4 4 5 7 6 7 8 9 10 11 12 11 12 13 10 12 9 7 6 6 6 9 8 8 7 8 6 4 7 7 4 5 10 9 7 7 8 8 7 6 10 10 7 6 6 4 2 2 2 7 11 13 16
4 7 4 5 5 5 10 6 7 8 9 8 7 8 7 5 7 4 4 4 5 7 6 6 7 8 8 6 6 5 6 3 7 7 10 10 9 8 9 9 11 11 10 8 6 6 7 5 5 8 14 22 21 20
3 3 4 5 5 5 3 4 5 5 5 7 6 6 6 6 8 4 3 3 3 6 7 7 7 7 4 3 6 6 7 8 10 8 5 6 6 5 2 10 10 13 14 10 9 10 11 10 11 17 18 15 16 18
Wind_Direction
350 349 349 348 350 349 347 347 349 349 349 351 350 351 352 352 350 341 11 22 336 316 83 352 1 341 318 331 319 16 272 189 272 269 259 270 257 264 282 275 275 272 278 249 237 255 247 7 290 308 89 102 81 73
342 341 341 342 343 344 344 343 345 345 344 347 347 347 347 345 344 338 325 9 334 277 7 334 359 340 327 342 321 321 330 290 2 289 278 311 282 268 276 271 250 256 310 325 329 24 48 34 48 43 51 82 77 56
334 334 335 338 338 339 340 341 342 342 341 343 342 342 343 340 338 334 324 356 294 273 205 215 171 152 240 326 334 290 97 355 284 23 316 294 287 308 276 258 278 227 81 268 311 185 86 81 79 52 33 57 48 55
326 327 331 332 333 334 337 339 340 339 338 338 338 338 338 334 327 315 337 359 327 301 281 117 118 199 321 242 295 306 300 275 277 282 278 283 278 274 271 294 296 287 152 274 265 268 270 217 163 78 37 22 24 19
318 318 322 325 327 331 335 336 337 336 334 335 336 335 335 332 318 273 309 14 10 334 325 320 313 203 208 241 263 253 269 267 259 250 237 249 261 274 269 269 263 263 265 263 260 271 321 325 115 87 312 319 334 339
310 312 315 319 324 329 332 333 334 333 330 331 332 332 333 333 330 255 193 118 17 336 282 280 88 218 217 272 268 261 268 276 271 276 271 264 259 258 260 261 264 265 252 260 272 277 277 274 242 239 286 285 279 320
305 307 309 315 320 324 328 331 332 330 326 325 328 328 326 315 287 322 15 23 337 300 251 260 204 129 243 264 250 238 240 243 261 270 256 256 265 245 258 263 265 269 266 266 265 265 266 266 266 253 265 280 263 269
305 301 305 311 314 320 326 330 330 328 321 321 325 324 301 301 252 183 106 348 317 264 260 274 249 190 171 276 261 126 272 272 234 241 262 262 262 254 250 253 265 271 272 267 262 258 252 244 250 251 249 258 254 266
304 302 303 306 311 318 325 329 328 323 317 315 313 313 251 231 276 43 341 294 231 298 302 263 303 29 140 248 260 250 202 272 260 235 242 250 239 233 231 245 258 271 278 275 258 254 251 251 252 247 261 258 245 257
304 304 303 303 312 319 326 327 327 320 314 303 282 223 238 40 335 286 177 202 197 181 226 266 9 284 332 342 298 295 275 249 276 248 241 233 250 255 255 267 273 282 278 282 280 259 249 246 249 244 243 244 251 255
308 306 303 306 311 316 319 323 326 319 287 334 340 323 346 318 257 218 263 252 140 227 180 274 345 324 66 318 326 279 296 306 271 260 241 254 247 240 237 235 238 267 270 270 263 271 271 268 255 237 242 245 243 241
306 306 306 306 309 315 318 319 323 319 344 324 300 293 278 249 246 267 247 174 227 1 112 308 1 338 310 355 273 273 256 243 257 306 253 249 265 336 157 211 196 271 277 280 278 269 254 254 249 253 255 251 231 237
306 304 304 306 313 317 319 319 316 300 294 200 222 228 315 269 309 249 318 196 344 36 320 310 297 313 278 210 277 263 262 250 272 259 251 263 38 99 134 199 217 241 293 298 289 277 260 253 239 238 237 234 243 242
304 303 302 302 304 308 306 309 317 315 275 269 302 301 260 210 242 331 338 331 344 323 297 310 303 291 293 242 236 256 235 249 247 240 252 266 37 66 164 226 239 225 345 342 324 290 272 250 234 221 224 246 239 228
303 301 292 292 296 315 307 304 300 282 274 270 268 248 235 271 277 299 317 303 283 297 310 298 286 258 252 259 255 263 261 240 228 239 279 50 27 358 333 327 317 318 330 318 318 312 298 257 242 231 222 220 206 223
312 293 201 1 317 308 302 300 258 238 254 248 240 256 254 264 292 326 329 319 336 334 316 290 302 293 226 234 251 228 238 237 287 347 345 334 317 297 281 275 276 278 280 276 272 268 271 290 227 223 209 207 222 216
282 267 52 336 314 298 281 270 256 223 257 234 232 231 269 277 288 305 319 310 330 312 277 290 250 232 271 241 237 248 257 284 322 304 291 280 277 275 273 269 264 262 259 252 248 255 257 269 239 207 217 196 229 217
248 44 28 336 325 301 195 217 265 258 249 248 265 287 318 308 299 291 300 306 301 263 244 248 283 256 241 249 251 251 262 272 267 270 277 275 273 270 268 266 257 246 235 228 231 247 245 257 282 209 207 213 197 227
295 341 335 320 322 305 275 206 246 272 259 295 292 292 296 299 288 275 268 271 267 231 144 236 249 241 237 242 256 265 271 272 277 276 272 279 277 266 266 266 262 252 234 229 206 227 234 233 243 266 197 207 204 211
248 283 282 287 264 272 266 227 207 271 281 317 308 284 299 299 298 284 273 266 206 111 194 224 230 235 242 260 267 271 269 271 276 277 274 264 272 258 265 260 244 234 226 220 197 200 222 214 223 262 234 202 156 147
224 139 227 241 216 264 284 304 253 269 308 285 303 311 298 294 279 271 262 77 98 196 232 234 249 257 261 273 276 271 277 265 256 279 294 312 327 302 298 296 288 245 206 192 179 185 215 194 196 215 181 141 138 139
237 227 267 147 267 209 269 277 290 307 273 286 293 280 291 298 310 314 18 206 224 229 215 248 267 281 291 289 294 299 292 295 308 356 6 327 338 333 308 284 260 227 184 170 170 175 185 164 178 207 317 112 146 178
247 224 248 272 261 250 262 238 267 259 261 304 314 300 292 301 287 354 274 208 226 229 233 264 281 287 292 294 300 306 319 354 29 20 9 24 347 322 324 5 51 127 131 142 157 160 164 159 181 197 112 190 194 212
215 251 248 241 221 268 279 250 257 275 278 306 318 304 299 308 308 252 262 278 249 269 285 300 298 303 312 327 322 318 326 4 37 54 50 32 17 14 33 59 71 101 116 108 148 152 154 156 133 169 202 202 209 232
237 238 181 256 238 235 254 234 235 270 280 315 303 274 288 327 291 311 285 280 287 302 322 316 318 325 316 308 315 324 12 37 55 52 46 79 90 73 68 68 70 86 124 136 133 124 133 152 173 185 213 257 271 289
250 197 203 238 199 224 266 279 255 257 298 299 261 291 345 308 279 264 261 240 271 307 309 312 319 317 316 324 323 359 25 36 66 60 32 46 75 95 90 103 99 111 148 158 194 144 119 115 128 178 202 285 281 277
256 221 209 239 280 255 273 267 276 276 284 268 298 329 352 283 282 275 291 247 269 304 322 302 302 295 292 308 332 15 15 64 90 91 103 110 107 104 118 121 115 117 130 130 155 158 139 138 183 198 214 220 252 270
252 291 251 238 231 291 287 294 269 264 259 248 291 293 264 227 272 353 314 316 319 315 313 297 281 269 302 313 350 12 41 61 51 92 91 76 85 93 100 112 131 218 166 161 160 152 159 186 225 231 237 260 279 239
234 229 288 278 283 247 240 233 254 241 260 279 277 279 266 271 299 305 294 304 318 318 307 319 331 317 305 342 10 40 36 31 59 86 85 75 92 122 146 149 152 133 119 107 69 49 107 173 234 272 262 303 22 86
256 206 213 248 231 235 223 221 260 274 295 307 288 280 279 276 279 283 289 300 302 293 287 286 279 291 326 336 12 36 36 28 34 21 35 74 117 94 71 101 117 128 116 118 147 123 106 106 110 132 192 266 93 114
191 203 242 249 266 266 270 275 277 278 276 272 266 266 276 290 300 287 267 256 276 279 292 333 349 359 341 345 11 10 38 121 64 40 39 68 73 91 106 121 115 110 129 135 112 89 82 13 319 -0 118 144 154 137
204 207 230 255 274 316 310 277 275 268 273 270 249 241 244 244 267 270 278 293 305 317 347 349 360 357 0 5 27 59 152 28 88 78 90 76 46 36 37 59 65 69 84 101 113 152 187 204 202 133 92 95 107 116
228 238 243 268 264 255 280 298 281 294 284 261 260 223 241 257 281 309 338 259 290 309 325 327 342 26 69 43 46 70 40 65 90 82 38 20 348 340 161 129 142 153 167 168 165 160 172 150 103 96 103 109 102 102